Regional Weather Roundup
Issued by NWS State College, PA

Home | Current Version | Previous Version | Text Only | Print | Product List | Glossary On
Versions: 1 2 3 4 5 6 7 8 9 10 11 12 13 14 15 16 17 18 19 20 21 22 23 24 25 26 27 28 29 30 31 32 33 34 35 36 37 38 39 40 41 42 43 44 45 46 47 48 49 50
000
ASUS41 KCTP 222110
RWRCTP

REGIONAL WEATHER ROUNDUP
NATIONAL WEATHER SERVICE STATE COLLEGE PA
400 PM EST WED FEB 22 2017

Note: "fair" indicates few or no clouds below 12,000 feet with no
significant weather and/or obstructions to visibility.

* = STATION THAT DOES NOT REPORT PRECIPITATION /E.G. RAIN...SNOW...ETC/
    THUNDER OR FOG.

PAZ002>004-007>009-013>016-020>023-029>032-222200-
WESTERN PENNSYLVANIA

CITY           SKY/WX    TMP DP  RH WIND       PRES   REMARKS
ERIE           CLOUDY    59  53  80 S13       29.82F
MEADVILLE      CLOUDY    55  53  93 S5        29.84S FOG
FRANKLIN*      CLOUDY    55  50  82 SW6       29.86F
NEW CASTLE     MOCLDY    61  53  75 SW3       29.84F
BEAVER COUNTY  PTSUNNY   64  50  59 CALM      29.83F
BUTLER*        PTSUNNY   63  48  59 S6        29.85S
PITTSBURGH INT PTSUNNY   66  49  54 S9        29.83F
PITTSBURGH     MOSUNNY   65  45  48 S8        29.83F
INDIANA*       PTSUNNY   66  46  48 W9        29.88F
LATROBE        MOSUNNY   64  46  52 W7        29.86F
WASHINGTON CO* PTSUNNY   64  48  55 SW8       29.86F
$$

PAZ004>006-010>012-017>019-024>028-033>037-041-042-045-046-049>053-222200-
CENTRAL PENNSYLVANIA

CITY           SKY/WX    TMP DP  RH WIND       PRES   REMARKS
BRADFORD       LGT RAIN  53  52  96 SW6       29.86F
DUBOIS         CLOUDY    61  45  55 SW3       29.85F
CLEARFIELD       N/A    N/A N/A N/A MISG      29.85F
JOHNSTOWN      MOSUNNY   63  43  48 VRB5      29.86F
ALTOONA        MOSUNNY   66  46  48 SW6       29.86F
STATE COLLEGE  SUNNY     64  43  45 S5        29.86F
WILLIAMSPORT   CLOUDY    55  37  50 E7        29.88F
SELINSGROVE    PTSUNNY   56  40  55 CALM      29.90S
FT INDIANTOWN  CLOUDY    60  41  49 CALM      29.89F
CAPITAL CITY   SUNNY     64  39  39 SE3       29.89F
HARRISBURG     PTSUNNY   60  42  51 S5        29.88F
YORK           SUNNY     63  42  46 S3        29.89S
$$

PAZ038>040-043-044-047-048-054-055-060>062-067>071-222200-
EASTERN PENNSYLVANIA

CITY           SKY/WX    TMP DP  RH WIND       PRES   REMARKS
SCRANTON       PTSUNNY   57  40  52 SW5       29.88S
MOUNT POCONO   CLOUDY    55  40  56 W5        29.88S
ALLENTOWN      CLOUDY    61  40  45 SW6       29.89F
QUAKERTOWN*    MOCLDY    61  41  48 SW3       29.90F
READING        MOSUNNY   61  42  49 CALM      29.89F
LANCASTER      MOSUNNY   63  44  50 CALM      29.90S
COATESVILLE    PTCLDY    59  43  55 S5        29.92S
POTTSTOWN      MOSUNNY   61  40  45 CALM      29.91F
BLUE BELL      SUNNY     55  41  58 S3        29.90S
DOYLESTOWN     SUNNY     60  40  47 S5        29.89F
WILLOW GROVE   NOT AVBL
NORTH PHILA    MOSUNNY   59  42  53 S5        29.92F
PHILADELPHIA   PTSUNNY   58  42  55 SW6       29.92S
$$




USA.gov is the U.S. government's official web portal to all federal, state and local government web resources and services.